This is the latest recevied weather packets stored in our database for station/object KC9Q. If no packets are shown the sender has not sent any weather packets the latest 1 day(s).
| Time | Temp. | Humidity | Pressure | Rain* | Wind** | Luminosity | Snow |
|---|---|---|---|---|---|---|---|
| 1778032139 | 11.67° C | 99% | 1006.8 hPa | 0 mm | 3.13 m/s, 339° | 0 W/m² | - |
| 1778031835 | 11.67° C | 99% | 1006.4 hPa | 0.51 mm | 4.92 m/s, 353° | 0 W/m² | - |
| 1778031532 | 11.67° C | 99% | 1006.3 hPa | 1.27 mm | 4.92 m/s, 1° | 0 W/m² | - |
| 1778031230 | 11.67° C | 99% | 1006.4 hPa | 1.27 mm | 3.58 m/s, 339° | 0 W/m² | - |
| 1778030926 | 12.22° C | 99% | 1006.5 hPa | 1.27 mm | 5.36 m/s, 355° | 0 W/m² | - |
| 1778030623 | 12.22° C | 99% | 1006.5 hPa | 1.78 mm | 2.68 m/s, 343° | 0 W/m² | - |
| 1778030320 | 12.22° C | 99% | 1006.1 hPa | 1.27 mm | 3.58 m/s, 356° | 0 W/m² | - |
| 1778030017 | 12.22° C | 99% | 1006.1 hPa | 1.27 mm | 4.47 m/s, 9° | 0 W/m² | - |
| 1778029714 | 12.22° C | 99% | 1006 hPa | 0 mm | 4.02 m/s, 4° | 0 W/m² | - |
| 1778029412 | 12.22° C | 99% | 1006 hPa | 0 mm | 4.92 m/s, 7° | 0 W/m² | - |
| 1778029109 | 12.22° C | 99% | 1005.9 hPa | 0.51 mm | 3.58 m/s, 2° | 0 W/m² | - |
| 1778028806 | 12.22° C | 99% | 1005.9 hPa | 0.51 mm | 3.58 m/s, 357° | 0 W/m² | - |
| 1778028502 | 12.22° C | 99% | 1005.9 hPa | 0 mm | 4.92 m/s, 358° | 0 W/m² | - |
| 1778028199 | 12.22° C | 99% | 1005.7 hPa | 0 mm | 4.92 m/s, 8° | 1 W/m² | - |
| 1778027895 | 12.22° C | 99% | 1005.9 hPa | 0.51 mm | 4.92 m/s, 1° | 1 W/m² | - |
| 1778027592 | 12.22° C | 99% | 1006.1 hPa | 0.51 mm | 4.02 m/s, 4° | 1 W/m² | - |
| 1778027288 | 12.22° C | 99% | 1006.1 hPa | 0 mm | 4.92 m/s, 3° | 2 W/m² | - |
| 1778026985 | 12.78° C | 99% | 1006 hPa | 0 mm | 4.47 m/s, 1° | 2 W/m² | - |
| 1778026680 | 12.78° C | 99% | 1005.9 hPa | 1.27 mm | 5.36 m/s, 3° | 3 W/m² | - |
| 1778026378 | 12.78° C | 99% | 1005.8 hPa | 1.78 mm | 4.02 m/s, 7° | 3 W/m² | - |
| 1778026074 | 12.78° C | 99% | 1005.7 hPa | 1.78 mm | 4.92 m/s, 11° | 8 W/m² | - |
| 1778025772 | 12.78° C | 99% | 1006 hPa | 2.29 mm | 3.13 m/s, 19° | 8 W/m² | - |
| 1778025469 | 12.78° C | 99% | 1006.3 hPa | 1.78 mm | 3.58 m/s, 351° | 8 W/m² | - |
| 1778025167 | 12.78° C | 99% | 1006.4 hPa | 1.78 mm | 3.13 m/s, 352° | 6 W/m² | - |
| 1778024863 | 12.78° C | 99% | 1006.2 hPa | 0.51 mm | 4.92 m/s, 0° | 7 W/m² | - |
* Rain latest hour (hover to see other rain measurements)
** Current wind speed in m/s (hover to see current wind gust speed)